Location: Newark
(40.3500°N, 15.2333°E)
Time: 11:03:21
(UTC+00:00)

Vanguard 1 - Pass Details

Date: 24 January 2020
Orbit: 650 x 3833 km, 34.2° (Epoch: 19 February)

Event Time Altitude Azimuth Distance (km) Brightness Sun altitude
Rises 14:53:25 0° 221° (SW) 3,208 14.6 11.2°
Reaches altitude 10° 14:56:33 10° 203° (SSW) 2,108 13.0 10.7°
Maximum altitude 14:59:44 19° 157° (SSE) 1,547 11.4 10.2°
Drops below altitude 10° 15:02:55 10° 111° (ESE) 2,092 11.5 9.7°
Sets 15:06:00 0° 93° (E) 3,172 12.2 9.2°
